Location: Erlenbrunn
(49.1717°N, 7.6142°E)
Time: 05:23:31
(UTC+00:00)

Cosmos 1356 - Pass Details

Date: 25 November 2020
Orbit: 440 x 444 km, 81.1° (Epoch: 27 January)

Event Time Altitude Azimuth Distance (km) Brightness Sun altitude
Rises 16:29:25 0° 356° (N) 2,452 6.9 -8.3°
Reaches altitude 10° 16:31:40 10° 8° (N) 1,577 5.9 -8.7°
Maximum altitude 16:34:44 29° 71° (ENE) 846 4.2 -9.1°
Drops below altitude 10° 16:37:46 10° 134° (SE) 1,567 5.9 -9.6°
Sets 16:40:00 0° 145° (SE) 2,434 7.0 -9.9°
